2021-050D (48843 NORAD) Tracking and Keplerian Element Data

This shows tracking and keplerian element data for the satellite.

Feedback or suggestion? Click here.




ElementValue
Catalog48843
Name2021-050D
Epoch Orbit809
Epoch Day215.25448454
Epoch Year2021
RAAN285.0066
Inclination97.511
Eccentricity0.0013902
Argument of Perigee84.9884
Mean Anonmoly319.6297
Mean Motion15.2336892
Decay Rate-7.3E-07
L11 48843U 21050D 21215.25448454 -.00000073 00000-0 00000+0 0 9992
L22 48843 97.5110 285.0066 0013902 84.9884 319.6297 15.23368920 8098

Live tracking and technical data element details for 2021-050D (NORAD 48843). 2021-050D can be tracked NOW for your location showing map with azimuth and elevation plus other details from your city location.

Track the satellite on the map from your city or location and see movement details for azimuth, elevation, latitude, longitude, range, height, and movement on the map or in text.







IsCatalogInMostPopularTable: catalog: 48843, numindb: 14
Update: records affected: 1



GetName: 48843 2021-050D

Hit Count: updated at: Tue, 03 Aug 2021 22:44:27 GMT